Location: Morisset
(33.1080°S, 151.4871°E)
Time: 08:22:03
(UTC+00:00)

Iridium 4 Rocket - Pass Details

Date: 29 October 2020
Orbit: 583 x 906 km, 86.9° (Epoch: 28 November)

Event Time Altitude Azimuth Distance (km) Brightness Sun altitude
Exits shadow 17:19:41 45° 291° (WNW) 854 3.3 -19.3°
Maximum altitude 17:20:15 48° 266° (W) 823 3.3 -19.2°
Drops below altitude 10° 17:24:40 10° 191° (S) 2,084 6.0 -18.4°
Sets 17:27:06 0° 185° (S) 3,054 7.0 -18.0°
